Regional Weather Roundup
Issued by NWS

Home | Current Version | Previous Version | Graphics & Text | Print | Product List | Glossary Off
Versions: 1 2 3 4 5 6 7 8 9 10 11 12 13 14 15 16 17 18 19 20 21 22 23 24 25 26 27 28 29 30 31 32 33 34 35 36 37 38 39 40 41 42 43 44 45 46 47 48 49 50

000
ASUS43 KMKX 010659
RWRWI

WISCONSIN REGIONAL WEATHER ROUNDUP
NATIONAL WEATHER SERVICE MILWAUKEE/SULLIVAN WI
100 AM CST SUN FEB 01 2015

NOTE: "FAIR" INDICATES FEW OR NO CLOUDS BELOW 12,000 FEET WITH NO
SIGNIFICANT WEATHER AND/OR OBSTRUCTIONS TO VISIBILITY.

WIZ001-002-006>008-014>016-023>028-010800-
NORTHWEST WISCONSIN

CITY           SKY/WX    TMP DP  RH WIND       PRES   REMARKS
SUPERIOR ARPT  CLOUDY     8   1  70 NE12      30.38S WCI  -7
ASHLAND        CLOUDY    13   8  81 E9        30.35S WCI   1
HAYWARD        CLOUDY    13   2  61 NE10      30.29S WCI   0
SIREN          CLOUDY    14   6  68 NE9       30.30R WCI   2
CUMBERLAND     CLOUDY    14   7  73 NE13G20   30.23S WCI   0
RICE LAKE      CLOUDY    16   7  69 NE14      30.26S WCI   1
CHETEK         CLOUDY    16   7  69 N12       30.24S WCI   2
LADYSMITH      CLOUDY    14   5  66 NE13      30.26F WCI   0
EAU CLAIRE     CLOUDY    18   8  65 NE15      30.20F WCI   4
MENOMONIE      CLOUDY    19   9  65 NE10G18   30.22S WCI   8
NEW RICHMOND   CLOUDY    17   9  69 NE16      30.23S WCI   2
OSCEOLA        CLOUDY    18   9  67 NE12      30.28R WCI   6
$$

WIZ003>005-009-010-017-018-010800-
NORTH CENTRAL WISCONSIN

CITY           SKY/WX    TMP DP  RH WIND       PRES   REMARKS
MANITOWISH WTR CLOUDY     4  -2  74 NE6       30.28R WCI  -6
ARBOR VITAE    CLOUDY     9   3  77 NE3       30.27R
WOODRUFF       CLOUDY     9   3  77 NE3       30.27R
RHINELANDER    CLOUDY     7  -1  70 NE9       30.26R WCI  -7
EAGLE RIVER    CLOUDY     6  -2  69 E10       30.27R WCI  -9
LAND O LAKES   CLOUDY     5   0  80 NE6       30.29R WCI  -6
PHILLIPS       CLOUDY    10   2  71 NE10      30.25S WCI  -4
TOMAHAWK       CLOUDY    10   3  72 NE3       30.25S
MEDFORD        CLOUDY    14   6  72 NE13      30.20S WCI   0
MERRILL        CLOUDY    14   5  68 NE10      30.25R WCI   1
$$

WIZ029-030-035-036-043>047-010800-
CENTRAL WISCONSIN

CITY           SKY/WX    TMP DP  RH WIND       PRES   REMARKS
WAUSAU         CLOUDY    15   6  67 NE7       30.22S WCI   5
MOSINEE        CLOUDY    18  10  73 NE15      30.23R WCI   3
MARSHFIELD     CLOUDY    18  10  71 NE17      30.17F WCI   3
STEVENS POINT  CLOUDY    17  11  78 E16       30.22S WCI   1
WAUPACA        LGT SNOW  19  11  69 E10       30.26S WCI   8
WAUTOMA        NOT AVBL
WISC RAPIDS    LGT SNOW  20  14  77 E14       30.20F WCI   7
CAMP DOUGLAS   LGT SNOW  25  25 100 E9        30.15F FOG     WCI  15
$$

WIZ011>013-019>022-031-037>040-048>050-010800-
NORTHEAST WISCONSIN

CITY           SKY/WX    TMP DP  RH WIND       PRES   REMARKS
ANTIGO         CLOUDY    11   5  77 E10       30.24S WCI  -2
SHAWANO        CLOUDY    16   4  61 NE14G21   30.31R WCI   1
OCONTO         CLOUDY    13   4  66 MISG      30.32S
STURGEON BAY   CLOUDY    12   5  73 N16       30.31F WCI  -4
GREEN BAY      CLOUDY    15   6  67 NE15      30.30S WCI   0
MANITOWOC      NOT AVBL
APPLETON       CLOUDY    16   9  73 NE17G28   30.26F WCI   0
CLINTONVILLE   CLOUDY    16   5  62 NE16      30.29R WCI   0
OSHKOSH        LGT SNOW  17  12  80 NE17G25   30.23F WCI   1
$$

WIZ032>034-041-042-053>061-010800-
SOUTHWEST WISCONSIN

CITY           SKY/WX    TMP DP  RH WIND       PRES   REMARKS
LA CROSSE      LGT SNOW  27  23  85 VRB6      30.14S FOG     WCI  20
SPARTA         LGT SNOW  26  22  87 E12       30.15F WCI  15
VIROQUA        CLOUDY    25  25 100 E15       30.07F WCI  12
BOSCOBEL       LGT SNOW  28  23  81 NE9G16    30.10F WCI  19
PRAIRIE DU CHI LGT SNOW  28  25  87 E8        30.08F WCI  20
PLATTEVILLE    CLOUDY    28  27  95 NE16      30.05F VSB 1   WCI  16
$$

WIZ056-057-062-063-064-067-068-010800-
SOUTH CENTRAL WISCONSIN

CITY           SKY/WX    TMP DP  RH WIND       PRES   REMARKS
REEDSBURG      LGT SNOW  24  22  93 E12G17    30.13F WCI  13
BARABOO/DELLS  SNOW      24  22  91 E14G20    30.14F VSB 1/2 WCI  12
LONE ROCK      LGT SNOW  26  22  84 E14       30.12F FOG     WCI  14
MINERAL POINT  LGT SNOW  28  27  93 E14       30.06F WCI  17
MADISON        LGT SNOW  26  22  84 E16       30.12F FOG     WCI  14
MIDDLETON      CLOUDY    28  26  93 E13       30.14F WCI  17
WATERTOWN      LGT SNOW  26  25  97 NE12      30.15F WCI  15
MONROE         LGT SNOW  28  28 100 E9        30.08F VSB 1   WCI  20
JANESVILLE     LGT SNOW  30  30 100 E9        30.12F WCI  22
$$

WIZ051-052-058>065-066-070>072-010800-
SOUTHEAST WISCONSIN

CITY           SKY/WX    TMP DP  RH WIND       PRES   REMARKS
MILWAUKEE      LGT SNOW  28  25  88 NE15      30.17F VSB 1   WCI  16
WAUKESHA       LGT SNOW  27  27 100 NE9       30.16F VSB 1   WCI  17
MILWAUKEE/TIMM LGT SNOW  28  27  93 NE12G17   30.18F WCI  18
RACINE         LGT SNOW  29  26  89 NE15      30.17F VSB 1   WCI  18
BURLINGTON     LGT SNOW  28  27  96 NE10      30.14F WCI  18
KENOSHA        LGT SNOW  29  27  92 NE14      30.14F FOG     WCI  18
FOND DU LAC    LGT SNOW  20  14  77 NE16G28   30.22F WCI   6
SHEBOYGAN      CLOUDY    23  17  78 NE18      30.21F WCI   9
WEST BEND      LGT SNOW  25  21  86 NE17G23   30.18F WCI  11
JUNEAU         LGT SNOW  24  21  89 NE12      30.18F WCI  12
$$

LSZ147-162-010800-
LAKE SUPERIOR

STATION/POSITION TIME  TEMP    WIND        PRES    WAVE
                       AIR SEA DIR/SP/G            HT/PER
                 (UTC) (F)     (DEG/KT/KT) (MB)    (FT/S)
DEVILS ISLAND    0600   13      60/ 22/ 26 1030.9R
PORT WING        0600   15      70/ 13/ 18 1028.1S
SAXON HARBOR     0600   14      70/  7/ 10 1028.1R
$$

LMZ867-665-643>646-010800-
LAKE MICHIGAN

STATION/POSITION TIME  TEMP    WIND        PRES    WAVE
                       AIR SEA DIR/SP/G            HT/PER
                 (UTC) (F)     (DEG/KT/KT) (MB)    (FT/S)
NORTHPORT PIER   0627   15     360/ 16/ 21 1026.4R
SISTER BAY       0513   14     360/ 14/ 18   N/A
KEWAUNEE LAKESHO 0600   17     360/ 10/ 16 1024.6R
SHEBOYGAN LAKESH 0600   26      40/ 23/ 24 1025.0R
PORT WASHINGTON  0640   28      50/ 17/ 24 1023.4F
MILWAUKEE LAKESH 0600   29      70/ 13/ 16   N/A
KENOSHA   LAKESH 0600   30      50/ 17/ 19 1021.3F
$$

TC  - TEMPERATURE IN CELSIUS
VSB - VISIBILITY IN STATUTE MILES
WCI - WIND CHILL INDEX
HX  - HEAT INDEX




USA.gov is the U.S. government's official web portal to all federal, state and local government web resources and services.